KD8BMB Weather Reports


Display with metric or nautical units.
time (UTC)temp
F
wind
direction
speed
MPH
gust
MPH
rain 1hr
in
rain 24hr
in
rain mn
in
humidity
%
barometer
mb
20260505214508 57 206 2.0 2.0 0.00 0.01 0.01 43 1006.7
20260505214004 56 319 5.0 7.0 0.00 0.01 0.01 42 1006.7
20260505213502 57 236 2.0 3.0 0.00 0.01 0.01 44 1006.7
20260505212958 57 226 6.0 9.0 0.00 0.01 0.01 42 1006.4
20260505212455 57 285 2.0 3.0 0.00 0.01 0.01 43 1006.6
20260505211952 57 290 2.0 3.0 0.00 0.01 0.01 44 1006.6
20260505211449 57 246 3.0 6.0 0.00 0.01 0.01 43 1006.8
20260505210945 57 259 3.0 5.0 0.00 0.01 0.01 44 1006.7
20260505210443 57 282 2.0 2.0 0.00 0.01 0.01 44 1006.7
20260505205939 57 198 1.0 2.0 0.00 0.01 0.01 46 1006.6
20260505205438 57 294 4.0 7.0 0.00 0.01 0.01 45 1006.6
20260505204934 57 236 3.0 5.0 0.00 0.01 0.01 45 1006.6
20260505204432 58 247 4.0 6.0 0.00 0.01 0.01 49 1006.5
20260505203929 57 229 2.0 2.0 0.00 0.01 0.01 50 1006.5
20260505203425 57 307 3.0 3.0 0.00 0.01 0.01 49 1006.5
20260505202922 58 199 2.0 3.0 0.00 0.01 0.01 48 1006.5
20260505202418 57 241 5.0 6.0 0.00 0.01 0.01 52 1006.8
20260505201915 57 211 2.0 2.0 0.00 0.01 0.01 55 1006.5
20260505201412 57 291 6.0 7.0 0.00 0.01 0.01 53 1006.7
20260505200910 57 208 5.0 9.0 0.00 0.01 0.01 54 1006.9
20260505200407 57 237 3.0 5.0 0.00 0.01 0.01 54 1006.8
20260505195902 57 219 5.0 6.0 0.00 0.01 0.01 51 1006.4
20260505195400 57 253 4.0 6.0 0.00 0.01 0.01 51 1006.6
20260505194857 57 233 3.0 3.0 0.00 0.01 0.01 52 1006.8
20260505194354 57 281 6.0 7.0 0.00 0.01 0.01 50 1006.8
20260505193849 57 354 2.0 2.0 0.00 0.01 0.01 51 1006.4
20260505193347 57 264 2.0 3.0 0.00 0.01 0.01 52 1006.6
20260505192844 57 240 2.0 3.0 0.00 0.01 0.01 52 1006.5
20260505192343 57 230 5.0 7.0 0.00 0.01 0.01 53 1006.6
20260505191840 57 248 5.0 6.0 0.00 0.01 0.01 54 1006.5
20260505191338 57 221 3.0 5.0 0.00 0.01 0.01 55 1006.8
20260505190835 58 266 6.0 8.0 0.00 0.01 0.01 54 1006.6
20260505190330 57 214 3.0 5.0 0.00 0.01 0.01 55 1006.4
20260505185826 59 177 2.0 2.0 0.00 0.01 0.01 58 1006.7
20260505185322 57 256 0.0 1.0 0.00 0.01 0.01 59 1006.6
20260505184819 57 224 2.0 5.0 0.00 0.01 0.01 60 1006.4
20260505184316 56 174 5.0 8.0 0.00 0.01 0.01 61 1006.7
20260505183813 56 272 3.0 6.0 0.00 0.01 0.01 60 1006.5
20260505183310 57 261 2.0 3.0 0.00 0.01 0.01 61 1006.2
20260505182807 56 307 3.0 5.0 0.00 0.01 0.01 62 1006.3
20260505182306 56 291 5.0 6.0 0.00 0.01 0.01 61 1006.3
20260505181800 56 254 2.0 2.0 0.00 0.01 0.01 70 1006.3
20260505181257 56 230 1.0 2.0 0.00 0.01 0.01 70 1006.2
20260505180754 56 223 1.0 2.0 0.00 0.01 0.01 69 1006.2
20260505180250 56 280 7.0 10.0 0.00 0.01 0.01 67 1006.3
20260505175747 56 245 1.0 2.0 0.00 0.01 0.01 69 1006.1
20260505175243 55 277 1.0 2.0 0.00 0.01 0.01 71 1006.1
20260505174740 54 315 5.0 7.0 0.00 0.01 0.01 72 1006.0
20260505174237 54 286 3.0 5.0 0.00 0.01 0.01 72 1006.1
20260505173733 54 227 5.0 6.0 0.00 0.01 0.01 72 1005.8
20260505173230 54 227 2.0 3.0 0.00 0.01 0.01 73 1006.1
20260505172727 54 213 3.0 3.0 0.00 0.01 0.01 74 1006.3
20260505172224 54 200 1.0 1.0 0.00 0.01 0.01 73 1006.3
20260505171724 54 253 0.0 0.0 0.00 0.01 0.01 74 1006.0
20260505171221 53 293 1.0 2.0 0.00 0.01 0.01 73 1006.2
20260505170718 54 256 2.0 2.0 0.00 0.01 0.01 73 1006.1
20260505170215 53 308 0.0 0.0 0.00 0.01 0.01 73 1006.0
20260505165710 54 279 0.0 0.0 0.00 0.01 0.01 73 1006.0
20260505165206 53 338 0.0 0.0 0.00 0.01 0.01 74 1006.0
20260505164702 54 1 0.0 1.0 0.00 0.01 0.01 74 1006.3
20260505164159 53 261 2.0 3.0 0.00 0.01 0.01 75 1006.4
20260505163657 52 273 2.0 3.0 0.00 0.01 0.01 77 1006.4
20260505163155 52 274 0.0 0.0 0.00 0.01 0.01 78 1006.5
20260505162653 53 268 2.0 3.0 0.00 0.01 0.01 77 1006.1
20260505162150 52 221 1.0 2.0 0.00 0.01 0.01 80 1006.4
20260505161646 51 216 1.0 1.0 0.00 0.01 0.01 81 1006.4
20260505161144 51 274 1.0 2.0 0.00 0.01 0.01 82 1006.3
20260505160642 51 273 3.0 3.0 0.00 0.01 0.01 80 1006.4
20260505160139 51 320 1.0 1.0 0.00 0.01 0.01 81 1006.3
20260505153118 50 267 0.0 0.0 0.00 0.01 0.01 81 1006.9
20260505152615 50 224 1.0 1.0 0.00 0.01 0.01 83 1006.5
20260505152110 50 293 0.0 0.0 0.00 0.01 0.01 85 1006.7
20260505151606 49 287 0.0 0.0 0.00 0.01 0.01 85 1006.3
20260505151104 49 287 0.0 0.0 0.00 0.01 0.01 87 1006.4
20260505150600 49 269 0.0 0.0 0.00 0.01 0.01 87 1006.5
20260505140525 49 284 0.0 0.0 0.00 0.00 0.00 76 1006.0
20260505124938 50 44 1.0 1.0 0.00 0.00 0.00 70 1004.4
20260505124435 50 357 2.0 2.0 0.00 0.00 0.00 69 1004.3
20260505123931 50 67 0.0 0.0 0.00 0.00 0.00 70 1004.0
20260505123428 50 77 1.0 2.0 0.00 0.00 0.00 70 1004.2
20260505122924 49 347 2.0 3.0 0.00 0.00 0.00 70 1004.3
20260505122422 49 76 1.0 1.0 0.00 0.00 0.00 70 1004.2
20260505121918 49 57 1.0 1.0 0.00 0.00 0.00 71 1004.0
20260505121415 49 69 0.0 0.0 0.00 0.00 0.00 71 1003.9
20260505120911 49 47 0.0 0.0 0.00 0.00 0.00 71 1003.7
20260505120407 49 59 1.0 1.0 0.00 0.00 0.00 69 1003.7
20260505115906 49 68 1.0 1.0 0.00 0.00 0.00 70 1003.7
20260505115403 49 352 3.0 3.0 0.00 0.00 0.00 70 1004.0
20260505114901 49 44 2.0 2.0 0.00 0.00 0.00 70 1003.4
20260505114357 49 24 1.0 1.0 0.00 0.00 0.00 70 1004.0
20260505113854 49 16 3.0 5.0 0.00 0.00 0.00 69 1003.5
20260505113350 50 37 2.0 2.0 0.00 0.00 0.00 69 1003.5
20260505112846 49 75 1.0 1.0 0.00 0.00 0.00 69 1003.2
20260505112344 49 71 0.0 1.0 0.00 0.00 0.00 71 1003.1
20260505111840 49 42 2.0 2.0 0.00 0.00 0.00 71 1002.9
20260505111335 48 78 0.0 0.0 0.00 0.00 0.00 74 1002.9
20260505110831 48 36 1.0 2.0 0.00 0.00 0.00 76 1002.8
20260505110329 48 299 3.0 5.0 0.00 0.00 0.00 76 1002.4
20260505101804 49 347 0.0 1.0 0.00 0.00 0.00 85 1001.8
20260505101258 49 39 3.0 3.0 0.00 0.00 0.00 86 1001.3
20260505100755 49 29 4.0 6.0 0.00 0.00 0.00 87 1001.3
20260505100252 50 347 4.0 5.0 0.00 0.00 0.00 87 1001.2
20260505095748 50 273 3.0 5.0 0.00 0.00 0.00 86 1001.0
20260505095246 52 334 3.0 3.0 0.00 0.00 0.00 85 1000.9
20260505094741 54 306 2.0 2.0 0.00 0.00 0.00 85 1000.5
20260505094238 57 315 5.0 7.0 0.00 0.00 0.00 89 1000.3
20260505093734 57 280 4.0 5.0 0.00 0.00 0.00 89 1000.4
20260505093231 57 230 2.0 2.0 0.00 0.00 0.00 88 1000.2
20260505092728 57 248 4.0 5.0 0.00 0.00 0.00 88 1000.0
20260505092227 57 291 2.0 2.0 0.00 0.00 0.00 88 999.8
20260505091724 57 234 2.0 3.0 0.00 0.00 0.00 88 999.9
20260505091222 58 291 2.0 2.0 0.00 0.00 0.00 88 999.8
20260505090719 58 261 4.0 6.0 0.00 0.00 0.00 88 999.8
20260505090218 58 284 3.0 3.0 0.00 0.00 0.00 87 999.8
20260505085714 58 284 2.0 3.0 0.00 0.00 0.00 87 1000.0
20260505085213 58 250 2.0 3.0 0.00 0.00 0.00 87 999.8
20260505084709 58 263 0.0 0.0 0.00 0.00 0.00 86 999.7
20260505084209 59 231 2.0 2.0 0.00 0.00 0.00 86 999.7
20260505083705 59 285 3.0 5.0 0.00 0.00 0.00 86 999.6
20260505083202 59 292 3.0 3.0 0.00 0.00 0.00 85 999.5
20260505082657 59 218 1.0 2.0 0.00 0.00 0.00 85 999.5
20260505082155 59 267 0.0 0.0 0.00 0.00 0.00 85 999.5
20260505081650 59 237 1.0 2.0 0.00 0.00 0.00 84 999.2
20260505081148 59 279 4.0 6.0 0.00 0.00 0.00 84 999.2
20260505080645 59 247 1.0 2.0 0.00 0.00 0.00 84 999.4
20260505080141 59 252 3.0 3.0 0.00 0.00 0.00 84 999.2
20260505075637 59 274 0.0 0.0 0.00 0.00 0.00 83 999.0
20260505075134 59 228 3.0 3.0 0.00 0.00 0.00 84 998.7
20260505074631 59 298 3.0 3.0 0.00 0.00 0.00 83 998.9
20260505074128 59 301 1.0 2.0 0.00 0.00 0.00 83 998.5
20260505073626 60 264 2.0 3.0 0.00 0.00 0.00 82 998.6
20260505073124 60 253 2.0 2.0 0.00 0.00 0.00 82 998.5
20260505072619 60 189 4.0 5.0 0.00 0.00 0.00 82 998.5
20260505072116 60 252 0.0 0.0 0.00 0.00 0.00 82 998.6
20260505071611 60 254 2.0 3.0 0.00 0.00 0.00 82 998.7
20260505071110 60 200 2.0 2.0 0.00 0.00 0.00 81 998.4
20260505070606 60 206 3.0 5.0 0.00 0.00 0.00 81 998.3
20260505065558 60 198 4.0 5.0 0.00 0.00 0.00 80 998.6
20260505065055 60 293 1.0 1.0 0.00 0.00 0.00 80 998.6
20260505064552 61 229 1.0 1.0 0.00 0.00 0.00 80 998.6
20260505064051 61 214 2.0 2.0 0.00 0.00 0.00 80 998.5
20260505063548 61 258 3.0 5.0 0.00 0.00 0.00 80 998.7
20260505063043 61 300 3.0 5.0 0.00 0.00 0.00 81 998.8
20260505062540 61 274 2.0 3.0 0.00 0.00 0.00 80 998.7
20260505062037 62 197 2.0 2.0 0.00 0.00 0.00 79 998.6
20260505061535 62 137 1.0 1.0 0.00 0.00 0.00 78 998.6
20260505061033 62 212 2.0 5.0 0.00 0.00 0.00 78 998.6
20260505060530 62 206 2.0 3.0 0.00 0.00 0.00 77 998.8
20260505060026 62 218 3.0 3.0 0.00 0.00 0.00 77 998.9
20260505055522 63 308 1.0 1.0 0.00 0.00 0.00 76 998.7
20260505055019 63 294 0.0 1.0 0.00 0.00 0.00 77 998.7
20260505054516 63 229 2.0 3.0 0.00 0.00 0.00 77 998.7
20260505054014 63 166 2.0 2.0 0.00 0.00 0.00 75 998.6
20260505053511 64 200 4.0 6.0 0.00 0.00 0.00 75 998.4
20260505053008 64 222 6.0 9.0 0.00 0.00 0.00 73 998.4
20260505052505 64 28 3.0 5.0 0.00 0.00 0.00 75 998.4
20260505052002 65 254 3.0 5.0 0.00 0.00 0.00 73 998.4
20260505051458 66 236 3.0 3.0 0.00 0.00 0.00 66 998.4
20260505050957 67 227 3.0 3.0 0.00 0.00 0.00 64 998.5
20260505050455 67 241 4.0 6.0 0.00 0.00 0.00 63 998.3
20260505041422 67 253 1.0 2.0 0.00 0.00 0.00 67 997.5
20260505040920 67 235 1.0 1.0 0.00 0.00 0.00 67 997.6
20260505040417 68 211 4.0 5.0 0.00 0.00 0.00 67 997.7
20260505035913 68 278 4.0 5.0 0.00 0.00 0.00 67 997.5
20260505035410 67 269 3.0 5.0 0.00 0.00 0.00 67 997.7
20260505034907 68 233 5.0 6.0 0.00 0.00 0.00 67 997.7
20260505034403 67 303 0.0 0.0 0.00 0.00 0.00 67 997.7
20260505033901 67 191 5.0 6.0 0.00 0.00 0.00 68 997.5
20260505033357 67 238 7.0 11.0 0.00 0.00 0.00 67 997.4
20260505032856 67 277 3.0 5.0 0.00 0.00 0.00 68 997.4
20260505032352 67 206 7.0 9.0 0.00 0.00 0.00 68 997.5
20260505031849 67 246 3.0 5.0 0.00 0.00 0.00 68 997.3
20260505031346 67 211 1.0 2.0 0.00 0.00 0.00 68 997.1
20260505030843 67 205 1.0 2.0 0.00 0.00 0.00 68 997.1
20260505030338 67 253 2.0 3.0 0.00 0.00 0.00 67 997.3
20260505025834 67 279 3.0 6.0 0.00 0.00 0.00 68 997.2
20260505025332 67 215 1.0 1.0 0.00 0.00 0.00 67 997.2
20260505024830 67 286 2.0 5.0 0.00 0.00 0.00 67 997.5
20260505024328 68 187 4.0 5.0 0.00 0.00 0.00 66 997.7
20260505023825 67 195 3.0 5.0 0.00 0.00 0.00 67 997.7
20260505023321 67 252 2.0 3.0 0.00 0.00 0.00 66 997.6
20260505022819 67 320 5.0 7.0 0.00 0.00 0.00 67 997.7
20260505022315 67 228 2.0 2.0 0.00 0.00 0.00 66 997.6
20260505021813 68 193 1.0 2.0 0.00 0.00 0.00 65 997.4
20260505021310 68 264 4.0 7.0 0.00 0.00 0.00 65 997.5
20260505020805 68 89 3.0 3.0 0.00 0.00 0.00 64 997.6
20260505020301 67 355 5.0 7.0 0.00 0.00 0.00 64 997.5
20260505015758 68 240 3.0 5.0 0.00 0.00 0.00 64 997.5
20260505015255 68 150 1.0 1.0 0.00 0.00 0.00 64 997.5
20260505014752 68 165 4.0 5.0 0.00 0.00 0.00 63 997.3
20260505014250 68 43 1.0 2.0 0.00 0.00 0.00 63 997.3
20260505013746 68 137 2.0 2.0 0.00 0.00 0.00 61 997.5
20260505013243 67 170 3.0 3.0 0.00 0.00 0.00 60 997.3
20260505012741 66 127 0.0 0.0 0.00 0.00 0.00 56 997.3
20260505012238 66 265 0.0 0.0 0.00 0.00 0.00 55 997.1
20260505011734 65 327 0.0 0.0 0.00 0.00 0.00 55 997.2
20260505011231 66 318 0.0 0.0 0.00 0.00 0.00 54 996.9
20260505010727 66 348 0.0 0.0 0.00 0.00 0.00 54 996.8
20260505010223 67 296 0.0 0.0 0.00 0.00 0.00 51 996.9
20260505005720 68 274 0.0 0.0 0.00 0.00 0.00 51 997.0
20260505005217 68 306 0.0 0.0 0.00 0.00 0.00 50 996.8
20260505004714 68 329 0.0 0.0 0.00 0.00 0.00 49 997.0
20260505004211 69 292 0.0 0.0 0.00 0.00 0.00 48 997.0
20260505003708 70 294 0.0 0.0 0.00 0.00 0.00 47 996.8
20260505003206 71 243 0.0 0.0 0.00 0.00 0.00 44 997.1
20260505002702 71 269 0.0 0.0 0.00 0.00 0.00 44 997.0
20260505002159 72 222 0.0 0.0 0.00 0.00 0.00 44 997.1
20260505001656 72 281 0.0 1.0 0.00 0.00 0.00 43 996.9
20260505001154 73 289 3.0 5.0 0.00 0.00 0.00 42 997.0
20260505000651 73 269 1.0 2.0 0.00 0.00 0.00 42 997.1
20260505000149 73 293 3.0 5.0 0.00 0.00 0.00 42 997.1
20260504235644 73 258 2.0 2.0 0.00 0.00 0.00 44 997.3
20260504235141 73 283 1.0 2.0 0.00 0.00 0.00 44 997.1
20260504234639 73 242 2.0 2.0 0.00 0.00 0.00 44 997.1
20260504234136 74 268 4.0 5.0 0.00 0.00 0.00 44 997.2
20260504233631 74 205 3.0 5.0 0.00 0.00 0.00 43 997.0
20260504233127 75 243 6.0 8.0 0.00 0.00 0.00 41 997.1
20260504232626 75 225 4.0 5.0 0.00 0.00 0.00 42 997.2
20260504232122 75 276 4.0 5.0 0.00 0.00 0.00 42 997.5
20260504231619 75 246 7.0 10.0 0.00 0.00 0.00 42 997.2
20260504231115 75 272 3.0 5.0 0.00 0.00 0.00 44 997.4
20260504230611 76 237 1.0 1.0 0.00 0.00 0.00 43 997.3
20260504230110 76 275 4.0 6.0 0.00 0.00 0.00 42 997.3
20260504225608 76 296 10.0 11.0 0.00 0.00 0.00 41 997.4
20260504225104 76 253 7.0 10.0 0.00 0.00 0.00 40 997.3
20260504224601 76 225 3.0 3.0 0.00 0.00 0.00 39 997.5
20260504224058 76 263 1.0 2.0 0.00 0.00 0.00 40 997.7
20260504223555 77 255 4.0 6.0 0.00 0.00 0.00 38 997.6
20260504223050 77 298 2.0 2.0 0.00 0.00 0.00 39 997.7
20260504222547 77 243 5.0 6.0 0.00 0.00 0.00 38 997.7
20260504222045 76 267 1.0 2.0 0.00 0.00 0.00 37 997.9
20260504221542 76 188 10.0 15.0 0.00 0.00 0.00 37 997.8
20260504221039 76 357 7.0 8.0 0.00 0.00 0.00 36 998.1
20260504220535 77 249 1.0 3.0 0.00 0.00 0.00 39 998.1
20260504220032 77 256 2.0 2.0 0.00 0.00 0.00 37 998.1
20260504215529 76 245 4.0 8.0 0.00 0.00 0.00 37 998.3
20260504215026 76 226 7.0 9.0 0.00 0.00 0.00 37 998.1